Time,TemperatureF,DewpointF,PressureIn,WindDirection,WindDirectionDegrees,WindSpeedMPH,WindSpeedGustMPH,Humidity,HourlyPrecipIn,Conditions,Clouds,dailyrainin,SolarRadiationWatts/m^2,SoftwareType,DateUTC
2013-03-15 00:03:00,41.0,13.0,30.41,NW,304,10.0,18.0,31,0.00,,,0.00,0.000000,,2013-03-15 04:03:00,
2013-03-15 00:13:00,41.0,13.0,30.41,NW,304,10.0,18.0,31,0.00,,,0.00,0.000000,,2013-03-15 04:13:00,
2013-03-15 00:43:00,41.0,13.0,30.42,WNW,289,9.0,16.0,32,0.00,,,0.00,0.000000,,2013-03-15 04:43:00,
2013-03-15 00:53:00,41.0,13.0,30.42,WNW,289,9.0,16.0,32,0.00,,,0.00,0.000000,,2013-03-15 04:53:00,
2013-03-15 01:02:00,41.0,13.0,30.42,WNW,289,9.0,16.0,32,0.00,,,0.00,0.000000,,2013-03-15 05:02:00,
2013-03-15 01:12:00,41.0,13.0,30.42,WNW,289,9.0,16.0,32,0.00,,,0.00,0.000000,,2013-03-15 05:12:00,
2013-03-15 01:32:00,38.0,15.0,30.42,WNW,285,7.0,13.0,39,0.00,,,0.00,0.000000,,2013-03-15 05:32:00,
2013-03-15 01:42:00,38.0,15.0,30.42,WNW,285,7.0,13.0,39,0.00,,,0.00,0.000000,,2013-03-15 05:42:00,
2013-03-15 01:52:00,38.0,15.0,30.42,WNW,285,7.0,13.0,39,0.00,,,0.00,0.000000,,2013-03-15 05:52:00,
2013-03-15 02:02:00,38.0,15.0,30.42,WNW,285,7.0,13.0,39,0.00,,,0.00,0.000000,,2013-03-15 06:02:00,
2013-03-15 02:13:00,38.0,15.0,30.42,WNW,285,7.0,13.0,39,0.00,,,0.00,0.000000,,2013-03-15 06:13:00,
2013-03-15 02:33:00,33.0,16.0,30.42,West,272,4.0,11.0,49,0.00,,,0.00,0.000000,,2013-03-15 06:33:00,
2013-03-15 02:42:00,33.0,16.0,30.42,West,272,4.0,11.0,49,0.00,,,0.00,0.000000,,2013-03-15 06:42:00,
2013-03-15 02:53:00,33.0,16.0,30.42,West,272,4.0,11.0,49,0.00,,,0.00,0.000000,,2013-03-15 06:53:00,
2013-03-15 03:02:00,33.0,16.0,30.42,West,272,4.0,11.0,49,0.00,,,0.00,0.000000,,2013-03-15 07:02:00,
2013-03-15 03:12:00,33.0,16.0,30.42,West,272,4.0,11.0,49,0.00,,,0.00,0.000000,,2013-03-15 07:12:00,
2013-03-15 03:42:00,32.0,19.0,30.39,West,280,2.0,7.0,58,0.00,,,0.00,0.000000,,2013-03-15 07:42:00,
2013-03-15 03:52:00,32.0,19.0,30.39,West,280,2.0,7.0,58,0.00,,,0.00,0.000000,,2013-03-15 07:52:00,
2013-03-15 04:02:00,32.0,19.0,30.39,West,280,2.0,7.0,58,0.00,,,0.00,0.000000,,2013-03-15 08:02:00,
2013-03-15 04:12:00,32.0,19.0,30.39,West,280,2.0,7.0,58,0.00,,,0.00,0.000000,,2013-03-15 08:12:00,
2013-03-15 04:42:00,30.0,20.0,30.38,WSW,238,1.0,3.0,66,0.00,,,0.00,0.000000,,2013-03-15 08:42:00,
2013-03-15 04:53:00,30.0,20.0,30.38,WSW,238,1.0,3.0,66,0.00,,,0.00,0.000000,,2013-03-15 08:53:00,
2013-03-15 05:02:00,30.0,20.0,30.38,WSW,238,1.0,3.0,66,0.00,,,0.00,0.000000,,2013-03-15 09:02:00,
2013-03-15 05:12:00,30.0,20.0,30.38,WSW,238,1.0,3.0,66,0.00,,,0.00,0.000000,,2013-03-15 09:12:00,
2013-03-15 05:33:00,29.0,22.0,30.39,WNW,296,2.0,5.0,74,0.00,,,0.00,0.000000,,2013-03-15 09:33:00,
2013-03-15 05:43:00,29.0,22.0,30.39,WNW,296,2.0,5.0,74,0.00,,,0.00,0.000000,,2013-03-15 09:43:00,
2013-03-15 05:53:00,29.0,22.0,30.39,WNW,296,2.0,5.0,74,0.00,,,0.00,0.000000,,2013-03-15 09:53:00,
2013-03-15 06:03:00,29.0,22.0,30.39,WNW,296,2.0,5.0,74,0.00,,,0.00,0.000000,,2013-03-15 10:03:00,
2013-03-15 06:13:00,29.0,22.0,30.39,WNW,296,2.0,5.0,74,0.00,,,0.00,0.000000,,2013-03-15 10:13:00,
2013-03-15 06:33:00,28.0,21.0,30.38,SSE,151,4.0,7.0,76,0.00,,,0.00,0.000000,,2013-03-15 10:33:00,
2013-03-15 06:43:00,28.0,21.0,30.38,SSE,151,4.0,7.0,76,0.00,,,0.00,0.000000,,2013-03-15 10:43:00,
2013-03-15 06:52:00,28.0,21.0,30.38,SSE,151,4.0,7.0,76,0.00,,,0.00,0.000000,,2013-03-15 10:52:00,
2013-03-15 07:03:00,28.0,21.0,30.38,SSE,151,4.0,7.0,76,0.00,,,0.00,0.000000,,2013-03-15 11:03:00,
2013-03-15 07:12:00,28.0,21.0,30.38,SSE,151,4.0,7.0,76,0.00,,,0.00,0.000000,,2013-03-15 11:12:00,
2013-03-15 07:33:00,27.0,23.0,30.39,SSE,164,3.0,8.0,83,0.00,,,0.00,0.000000,,2013-03-15 11:33:00,
2013-03-15 07:43:00,27.0,23.0,30.39,SSE,164,3.0,8.0,83,0.00,,,0.00,0.000000,,2013-03-15 11:43:00,
2013-03-15 07:52:00,27.0,23.0,30.39,SSE,164,3.0,8.0,83,0.00,,,0.00,0.000000,,2013-03-15 11:52:00,
2013-03-15 08:02:00,27.0,23.0,30.39,SSE,164,3.0,8.0,83,0.00,,,0.00,0.000000,,2013-03-15 12:02:00,
2013-03-15 08:12:00,27.0,23.0,30.39,SSE,164,3.0,8.0,83,0.00,,,0.00,0.000000,,2013-03-15 12:12:00,
2013-03-15 08:42:00,29.0,24.0,30.41,SW,223,2.0,5.0,80,0.00,,,0.00,8.000000,,2013-03-15 12:42:00,
2013-03-15 08:52:00,29.0,24.0,30.41,SW,223,2.0,5.0,80,0.00,,,0.00,8.000000,,2013-03-15 12:52:00,
2013-03-15 09:02:00,29.0,24.0,30.41,SW,223,2.0,5.0,80,0.00,,,0.00,8.000000,,2013-03-15 13:02:00,
2013-03-15 09:12:00,29.0,24.0,30.41,SW,223,2.0,5.0,80,0.00,,,0.00,8.000000,,2013-03-15 13:12:00,
2013-03-15 09:42:00,40.0,24.0,30.42,SSW,201,5.0,7.0,53,0.00,,,0.00,168.000000,,2013-03-15 13:42:00,
2013-03-15 09:53:00,40.0,24.0,30.42,SSW,201,5.0,7.0,53,0.00,,,0.00,168.000000,,2013-03-15 13:53:00,
2013-03-15 10:02:00,40.0,24.0,30.42,SSW,201,5.0,7.0,53,0.00,,,0.00,168.000000,,2013-03-15 14:02:00,
2013-03-15 10:12:00,40.0,24.0,30.42,SSW,201,5.0,7.0,53,0.00,,,0.00,168.000000,,2013-03-15 14:12:00,
2013-03-15 10:42:00,49.0,24.0,30.40,SSW,196,6.0,11.0,37,0.00,,,0.00,412.000000,,2013-03-15 14:42:00,
2013-03-15 10:53:00,49.0,24.0,30.40,SSW,196,6.0,11.0,37,0.00,,,0.00,412.000000,,2013-03-15 14:53:00,
2013-03-15 11:02:00,49.0,24.0,30.40,SSW,196,6.0,11.0,37,0.00,,,0.00,412.000000,,2013-03-15 15:02:00,
2013-03-15 11:13:00,49.0,24.0,30.40,SSW,196,6.0,11.0,37,0.00,,,0.00,412.000000,,2013-03-15 15:13:00,
2013-03-15 11:43:00,53.0,19.0,30.37,SSW,200,8.0,19.0,26,0.00,,,0.00,633.000000,,2013-03-15 15:43:00,
2013-03-15 11:53:00,53.0,19.0,30.37,SSW,200,8.0,19.0,26,0.00,,,0.00,633.000000,,2013-03-15 15:53:00,
2013-03-15 12:03:00,53.0,19.0,30.37,SSW,200,8.0,19.0,26,0.00,,,0.00,633.000000,,2013-03-15 16:03:00,
2013-03-15 12:13:00,53.0,19.0,30.37,SSW,200,8.0,19.0,26,0.00,,,0.00,633.000000,,2013-03-15 16:13:00,
2013-03-15 12:32:00,58.0,24.0,30.34,SW,214,9.0,25.0,27,0.00,,,0.00,791.000000,,2013-03-15 16:32:00,
2013-03-15 12:42:00,58.0,24.0,30.34,SW,214,9.0,25.0,27,0.00,,,0.00,791.000000,,2013-03-15 16:42:00,
2013-03-15 12:53:00,58.0,24.0,30.34,SW,214,9.0,25.0,27,0.00,,,0.00,791.000000,,2013-03-15 16:53:00,
2013-03-15 13:02:00,58.0,24.0,30.34,SW,214,9.0,25.0,27,0.00,,,0.00,791.000000,,2013-03-15 17:02:00,
2013-03-15 13:12:00,58.0,24.0,30.34,SW,214,9.0,25.0,27,0.00,,,0.00,791.000000,,2013-03-15 17:12:00,
2013-03-15 13:43:00,61.0,27.0,30.31,SSW,201,9.0,22.0,27,0.00,,,0.00,850.000000,,2013-03-15 17:43:00,
2013-03-15 13:53:00,61.0,27.0,30.31,SSW,201,9.0,22.0,27,0.00,,,0.00,850.000000,,2013-03-15 17:53:00,
2013-03-15 14:03:00,61.0,27.0,30.31,SSW,201,9.0,22.0,27,0.00,,,0.00,850.000000,,2013-03-15 18:03:00,
2013-03-15 14:12:00,61.0,27.0,30.31,SSW,201,9.0,22.0,27,0.00,,,0.00,850.000000,,2013-03-15 18:12:00,
2013-03-15 14:42:00,61.0,28.0,30.28,SSW,203,10.0,23.0,28,0.00,,,0.00,805.000000,,2013-03-15 18:42:00,
2013-03-15 14:53:00,61.0,28.0,30.28,SSW,203,10.0,23.0,28,0.00,,,0.00,805.000000,,2013-03-15 18:53:00,
2013-03-15 15:02:00,61.0,28.0,30.28,SSW,203,10.0,23.0,28,0.00,,,0.00,805.000000,,2013-03-15 19:02:00,
2013-03-15 15:12:00,61.0,28.0,30.28,SSW,203,10.0,23.0,28,0.00,,,0.00,805.000000,,2013-03-15 19:12:00,
2013-03-15 15:42:00,62.0,29.0,30.24,SW,220,15.0,27.0,28,0.00,,,-99.99,764.000000,,2013-03-15 19:42:00,
2013-03-15 15:53:00,62.0,29.0,30.24,SW,220,15.0,27.0,28,0.00,,,-99.99,764.000000,,2013-03-15 19:53:00,
2013-03-15 16:03:00,62.0,29.0,30.24,SW,220,15.0,27.0,28,0.00,,,-99.99,764.000000,,2013-03-15 20:03:00,
2013-03-15 16:12:00,62.0,29.0,30.24,SW,220,15.0,27.0,28,0.00,,,-99.99,764.000000,,2013-03-15 20:12:00,
2013-03-15 16:42:00,64.0,29.0,30.20,SW,217,15.0,27.0,27,0.00,,,0.00,682.000000,,2013-03-15 20:42:00,
2013-03-15 16:52:00,64.0,29.0,30.20,SW,217,15.0,27.0,27,0.00,,,0.00,682.000000,,2013-03-15 20:52:00,
2013-03-15 17:02:00,64.0,29.0,30.20,SW,217,15.0,27.0,27,0.00,,,0.00,682.000000,,2013-03-15 21:02:00,
2013-03-15 17:12:00,64.0,29.0,30.20,SW,217,15.0,27.0,27,0.00,,,0.00,682.000000,,2013-03-15 21:12:00,
2013-03-15 17:43:00,65.0,30.0,30.18,SSW,213,11.0,26.0,27,0.00,,,0.00,547.000000,,2013-03-15 21:43:00,
2013-03-15 17:53:00,65.0,30.0,30.18,SSW,213,11.0,26.0,27,0.00,,,0.00,547.000000,,2013-03-15 21:53:00,
2013-03-15 18:04:00,65.0,30.0,30.18,SSW,213,11.0,26.0,27,0.00,,,0.00,547.000000,,2013-03-15 22:04:00,
2013-03-15 18:14:00,65.0,30.0,30.18,SSW,213,11.0,26.0,27,0.00,,,0.00,547.000000,,2013-03-15 22:14:00,
2013-03-15 18:42:00,64.0,30.0,30.17,SSW,209,9.0,25.0,28,0.00,,,0.00,386.000000,,2013-03-15 22:42:00,
2013-03-15 18:53:00,64.0,30.0,30.17,SSW,209,9.0,25.0,28,0.00,,,0.00,386.000000,,2013-03-15 22:53:00,
2013-03-15 19:03:00,64.0,30.0,30.17,SSW,209,9.0,25.0,28,0.00,,,0.00,386.000000,,2013-03-15 23:03:00,
2013-03-15 19:12:00,64.0,30.0,30.17,SSW,209,9.0,25.0,28,0.00,,,0.00,386.000000,,2013-03-15 23:12:00,
2013-03-15 19:42:00,60.0,32.0,30.16,South,190,8.0,22.0,34,0.00,,,0.00,129.000000,,2013-03-15 23:42:00,
2013-03-15 19:53:00,60.0,32.0,30.16,South,190,8.0,22.0,34,0.00,,,0.00,129.000000,,2013-03-15 23:53:00,
2013-03-15 20:03:00,60.0,32.0,30.16,South,190,8.0,22.0,34,0.00,,,0.00,129.000000,,2013-03-16 00:03:00,
2013-03-15 20:12:00,60.0,32.0,30.16,South,190,8.0,22.0,34,0.00,,,0.00,129.000000,,2013-03-16 00:12:00,
2013-03-15 20:42:00,54.0,31.0,30.16,South,184,6.0,13.0,42,0.00,,,0.00,9.000000,,2013-03-16 00:42:00,
2013-03-15 20:52:00,54.0,31.0,30.16,South,184,6.0,13.0,42,0.00,,,0.00,9.000000,,2013-03-16 00:52:00,
2013-03-15 21:03:00,54.0,31.0,30.16,South,184,6.0,13.0,42,0.00,,,0.00,9.000000,,2013-03-16 01:03:00,
2013-03-15 21:12:00,54.0,31.0,30.16,South,184,6.0,13.0,42,0.00,,,0.00,9.000000,,2013-03-16 01:12:00,
2013-03-15 21:32:00,53.0,32.0,30.15,South,184,5.0,13.0,44,0.00,,,0.00,0.000000,,2013-03-16 01:32:00,
2013-03-15 21:42:00,53.0,32.0,30.15,South,184,5.0,13.0,44,0.00,,,0.00,0.000000,,2013-03-16 01:42:00,
2013-03-15 21:53:00,53.0,32.0,30.15,South,184,5.0,13.0,44,0.00,,,0.00,0.000000,,2013-03-16 01:53:00,
2013-03-15 22:02:00,53.0,32.0,30.15,South,184,5.0,13.0,44,0.00,,,0.00,0.000000,,2013-03-16 02:02:00,
2013-03-15 22:12:00,53.0,32.0,30.15,South,184,5.0,13.0,44,0.00,,,0.00,0.000000,,2013-03-16 02:12:00,
2013-03-15 22:43:00,50.0,34.0,30.15,South,176,5.0,10.0,54,0.00,,,0.00,0.000000,,2013-03-16 02:43:00,
2013-03-15 22:52:00,50.0,34.0,30.15,South,176,5.0,10.0,54,0.00,,,0.00,0.000000,,2013-03-16 02:52:00,
2013-03-15 23:02:00,50.0,34.0,30.15,South,176,5.0,10.0,54,0.00,,,0.00,0.000000,,2013-03-16 03:02:00,
2013-03-15 23:12:00,50.0,34.0,30.15,South,176,5.0,10.0,54,0.00,,,0.00,0.000000,,2013-03-16 03:12:00,
2013-03-15 23:43:00,52.0,35.0,30.14,South,190,7.0,12.0,53,0.00,,,0.00,0.000000,,2013-03-16 03:43:00,
2013-03-15 23:53:00,52.0,35.0,30.14,South,190,7.0,12.0,53,0.00,,,0.00,0.000000,,2013-03-16 03:53:00,